KIPP (43157 NORAD) Tracking and Keplerian Element Data

This shows tracking and keplerian element data for the satellite.

Feedback or suggestion? Click here.




ElementValue
Catalog43157
NameKIPP
Epoch Orbit33073
Epoch Day12.92339189
Epoch Year2024
RAAN68.9574
Inclination97.2762
Eccentricity0.0005983
Argument of Perigee282.5659
Mean Anonmoly77.4922
Mean Motion15.46655311
Decay Rate0.00086827
L11 43157U 18008C 24012.92339189 .00086827 00000+0 17245-2 0 9991
L22 43157 97.2762 68.9574 0005983 282.5659 77.4922 15.46655311330730



Live tracking and technical data element details for KIPP (NORAD 43157). KIPP can be tracked NOW for your location showing map with azimuth and elevation plus other details from your city location.







IsCatalogInMostPopularTable: catalog: 43157, numindb: 557
Update: records affected: 1



GetName: 43157 KIPP

Hit Count: updated at: Thu, 22 May 2025 03:42:44 GMT